Location: Bakhuizen
(52.8696°N, 5.4575°E)
Time: 08:40:15
(UTC+00:00)

Cosmos 1833 Rocket - Pass Details

Date: 11 May 2021
Orbit: 831 x 841 km, 71.0° (Epoch: 15 June)

Event Time Altitude Azimuth Distance (km) Brightness Sun altitude
Rises 20:53:55 0° 326° (NNW) 3,409 8.0 -11.0°
Reaches altitude 10° 20:56:24 10° 323° (NW) 2,470 6.7 -11.2°
Maximum altitude 21:01:57 57° 246° (WSW) 984 3.1 -11.7°
Enters shadow 21:06:51 13° 170° (S) 2,234 4.4 -12.2°
